Doylestown, PA

1:45 AM EDT on October 18, 2017 (GMT -0400)
Doylestown

Weather History for KDYL - April, 2013

Change the Weather History Date:

Tuesday, April 2, 2013

  Actual Average (KTTN) Record (KTTN)
Temperature  
Mean Temperature 36 °F -  
Max Temperature 45 °F 54 °F 83 °F (1967)
Min Temperature 28 °F 36 °F 21 °F (1911)
Degree Days  
Heating Degree Days 29    
Moisture  
Dew Point 11 °F    
Average Humidity 37    
Maximum Humidity 49    
Minimum Humidity 26    
Precipitation  
Precipitation 0.00 in - - ()
Sea Level Pressure  
Sea Level Pressure 30.03 in    
Wind  
Wind Speed 9 mph (WNW)    
Max Wind Speed 22 mph    
Max Gust Speed 31 mph    
Visibility 10 miles    
Events      
Averages and records for this station are not official NWS values.
T = Trace of Precipitation, MM = Missing Value Source: NWS Daily Summary

Daily Weather History Graph

Daily Weather History Graph

Search for Another Location

Airport or City:

Trip Planner

Search our weather history database for the weather conditions in past years. The results will help you decide how hot, cold, wet, or windy it might be!

Date:

Astronomy

Apr. 02, 2013 Rise Set
Actual Time 6:42 AM EDT 7:26 PM EDT
Civil Twilight 6:14 AM EDT 7:53 PM EDT
Nautical Twilight 5:42 AM EDT 8:26 PM EDT
Astronomical Twilight 5:08 AM EDT 9:00 PM EDT
Moon 1:29 AM EDT (4/2) 11:30 AM EDT (4/2)
Length of Visible Light 13h 38m
Length of Day
12h 43m
Waning Gibbous, 56% of the Moon is Illuminated
Apr 2
Waning Gibbous
Apr 3
Last Quarter
Apr 10
New
Apr 18
First Quarter
Apr 25
Full

Hourly Weather History & Observations

Time (EDT) Temp. Windchill Dew Point Humidity Pressure Visibility Wind Dir Wind Speed Gust Speed Precip Events Conditions
12:54 AM 33.1 °F 28.7 °F 12.0 °F 42% 29.96 in 10.0 mi NW 4.6 mph - N/A   Clear
1:54 AM 30.9 °F 27.5 °F 12.9 °F 47% 29.97 in 10.0 mi West 3.5 mph - N/A   Clear
2:54 AM 30.9 °F 26.2 °F 12.0 °F 46% 29.96 in - West 4.6 mph - N/A   Unknown
3:54 AM 30.9 °F 25.2 °F 10.9 °F 43% 29.96 in 10.0 mi West 5.8 mph - N/A   Clear
4:54 AM 30.0 °F 22.4 °F 10.9 °F 45% 29.98 in 10.0 mi WNW 8.1 mph - N/A   Clear
5:54 AM 28.9 °F 25.2 °F 10.9 °F 47% 29.99 in 10.0 mi West 3.5 mph - N/A   Clear
6:54 AM 28.9 °F 25.2 °F 12.0 °F 49% 30.01 in 10.0 mi West 3.5 mph - N/A   Unknown
7:54 AM 30.9 °F 23.5 °F 12.9 °F 47% 30.03 in 10.0 mi West 8.1 mph - N/A   Clear
8:54 AM 35.1 °F 25.5 °F 14.0 °F 42% 30.06 in 10.0 mi WNW 15.0 mph 23.0 mph N/A   Clear
9:54 AM 36.0 °F 24.7 °F 10.9 °F 36% 30.06 in 10.0 mi NW 21.9 mph 27.6 mph N/A   Clear
10:54 AM 37.0 °F 28.1 °F 14.0 °F 39% 30.06 in 10.0 mi WNW 15.0 mph 25.3 mph N/A   Scattered Clouds
11:54 AM 39.0 °F 30.3 °F 10.9 °F 32% 30.06 in 10.0 mi WNW 16.1 mph 24.2 mph N/A   Scattered Clouds
12:54 PM 39.0 °F 29.0 °F 10.0 °F 30% 30.04 in 10.0 mi NW 20.7 mph 28.8 mph N/A   Partly Cloudy
1:54 PM 39.9 °F 32.9 °F 12.0 °F 32% 30.03 in 10.0 mi WNW 11.5 mph 26.5 mph N/A   Clear
2:54 PM 42.1 °F 33.1 °F 10.9 °F 28% 30.02 in 10.0 mi WNW 20.7 mph 31.1 mph N/A   Partly Cloudy
3:54 PM 44.1 °F 38.6 °F 10.9 °F 26% 30.01 in 10.0 mi WNW 10.4 mph 23.0 mph N/A   Scattered Clouds
4:54 PM 43.0 °F 36.0 °F 10.0 °F 26% 30.01 in 10.0 mi WNW 13.8 mph 26.5 mph N/A   Partly Cloudy
5:54 PM 41.0 °F 33.5 °F 9.0 °F 27% 30.03 in 10.0 mi WNW 13.8 mph 27.6 mph N/A   Clear
6:54 PM 39.9 °F 32.1 °F 9.0 °F 28% 30.04 in 10.0 mi WNW 13.8 mph 23.0 mph N/A   Partly Cloudy
7:54 PM 37.9 °F 30.5 °F 9.0 °F 30% 30.06 in 10.0 mi WNW 11.5 mph 23.0 mph N/A   Clear
8:54 PM 37.0 °F 30.4 °F 10.0 °F 33% 30.09 in 10.0 mi WNW 9.2 mph - N/A   Clear
9:54 PM 36.0 °F 28.5 °F 10.9 °F 36% 30.11 in 10.0 mi West 10.4 mph - N/A   Clear
10:54 PM 35.1 °F 29.3 °F 12.0 °F 39% 30.12 in 10.0 mi West 6.9 mph - N/A   Clear
11:54 PM 34.0 °F 27.2 °F 12.9 °F 42% 30.12 in 10.0 mi WNW 8.1 mph - N/A   Clear